Location: Unspecified
(0.0000°N, 0.0000°E)
Time: 04:25:45
(UTC+01:00)

Cosmos 1833 Rocket - Visible Passes

Search period start: 23 November 2014 00:00
Search period end: 03 December 2014 00:00
Orbit: 831 x 842 km, 71.0° (Epoch: 22 November)

Date Brightness Start Highest point End Pass type
(mag) Time Alt. Az. Time Alt. Az. Time Alt. Az.
23 Nov 3.4 05:59:42 10° N 06:05:11 57° ENE 06:10:41 10° SSE visible
24 Nov 3.6 05:43:11 10° N 05:48:36 50° ENE 05:54:01 10° SSE visible
25 Nov 3.7 05:26:40 10° N 05:32:00 45° ENE 05:37:20 10° SSE visible
26 Nov 3.9 05:10:11 10° N 05:15:24 40° ENE 05:20:37 10° SE visible
27 Nov 4.0 04:54:32 14° NNE 04:58:49 36° ENE 05:03:54 10° SE visible
28 Nov 4.2 04:39:25 21° NNE 04:42:13 32° ENE 04:47:09 10° SE visible
28 Nov 4.2 06:22:19 10° WNW 06:25:51 17° WSW 06:29:23 10° SW visible
29 Nov 4.3 04:24:13 26° NE 04:25:37 29° ENE 04:30:22 10° SE visible
29 Nov 4.1 06:06:00 12° WNW 06:09:15 19° WSW 06:13:08 10° SSW visible
30 Nov 4.4 04:08:58 26° ENE 04:09:01 26° ENE 04:13:34 10° SE visible
30 Nov 3.9 05:50:43 18° WNW 05:52:39 21° WSW 05:56:49 10° SSW visible
01 Dec 4.8 03:53:37 21° E 03:53:37 21° E 03:56:44 10° SE visible
01 Dec 3.8 05:35:23 23° W 05:36:03 24° WSW 05:40:28 10° SSW visible
02 Dec 5.2 03:38:12 16° ESE 03:38:12 16° ESE 03:39:52 10° ESE visible
02 Dec 3.7 05:19:57 26° WSW 05:19:57 26° WSW 05:24:05 10° SSW visible
